EW6604 Weather Reports


Display with metric or nautical units.
time (UTC)temp
F
wind
direction
speed
MPH
gust
MPH
rain 1hr
in
rain 24hr
in
rain mn
in
humidity
%
barometer
mb
20260506134716 78 126 2.0 5.0 0.00 0.00 0.00 77 1017.2
20260506134218 78 146 1.0 4.0 0.00 0.00 0.00 77 1017.2
20260506133721 78 203 1.0 4.0 0.00 0.00 0.00 78 1017.2
20260506133225 77 142 2.0 6.0 0.00 0.00 0.00 77 1017.2
20260506132713 77 217 0.0 6.0 0.00 0.00 0.00 79 1017.2
20260506132237 77 227 2.0 4.0 0.00 0.00 0.00 79 1017.2
20260506131719 76 132 1.0 4.0 0.00 0.00 0.00 79 1017.1
20260506131223 76 138 1.0 6.0 0.00 0.00 0.00 79 1017.0
20260506130726 76 194 1.0 3.0 0.00 0.00 0.00 79 1016.9
20260506130210 75 160 0.0 2.0 0.00 0.00 0.00 80 1016.8
20260506125713 74 114 1.0 3.0 0.00 0.00 0.00 80 1016.9
20260506125208 74 151 0.0 3.0 0.00 0.00 0.00 81 1016.9
20260506124712 73 190 0.0 2.0 0.00 0.00 0.00 83 1016.9
20260506124216 71 200 0.0 0.0 0.00 0.00 0.00 85 1017.0
20260506123719 71 187 0.0 0.0 0.00 0.00 0.00 86 1017.1
20260506123224 70 187 0.0 0.0 0.00 0.00 0.00 86 1017.0
20260506122712 69 187 0.0 0.0 0.00 0.00 0.00 86 1017.0
20260506122208 69 187 0.0 0.0 0.00 0.00 0.00 87 1017.1
20260506121711 69 187 0.0 0.0 0.00 0.00 0.00 89 1017.0
20260506121216 68 187 0.0 0.0 0.00 0.00 0.00 90 1017.0
20260506120732 66 188 0.0 0.0 0.00 0.00 0.00 91 1016.9
20260506120235 65 187 0.0 0.0 0.00 0.00 0.00 90 1016.8
20260506115717 65 187 0.0 0.0 0.00 0.00 0.00 90 1016.8
20260506115221 64 187 0.0 0.0 0.00 0.00 0.00 91 1016.8
20260506114745 64 187 0.0 0.0 0.00 0.00 0.00 91 1016.8
20260506114217 64 187 0.0 0.0 0.00 0.00 0.00 91 1016.8
20260506113719 63 187 0.0 0.0 0.00 0.00 0.00 91 1016.7
20260506113223 63 187 0.0 0.0 0.00 0.00 0.00 91 1016.6
20260506112220 63 187 0.0 0.0 0.00 0.00 0.00 92 1016.6
20260506111224 62 187 0.0 0.0 0.00 0.00 0.00 92 1016.5
20260506110712 62 187 0.0 0.0 0.00 0.00 0.00 93 1016.5
20260506110216 61 187 0.0 0.0 0.00 0.00 0.00 93 1016.3
20260506105720 61 187 0.0 0.0 0.00 0.00 0.00 93 1016.2
20260506105244 61 187 0.0 0.0 0.00 0.00 0.00 92 1016.1
20260506104747 60 187 0.0 0.0 0.00 0.00 0.00 92 1016.1
20260506104229 60 187 0.0 0.0 0.00 0.00 0.00 92 1016.1
20260506103712 61 187 0.0 0.0 0.00 0.00 0.00 92 1016.1
20260506103216 61 189 0.0 0.0 0.00 0.00 0.00 92 1016.0
20260506102720 61 190 0.0 0.0 0.00 0.00 0.00 92 1016.1
20260506102223 61 190 0.0 0.0 0.00 0.00 0.00 92 1016.0
20260506101727 61 190 0.0 0.0 0.00 0.00 0.00 92 1016.0
20260506101209 61 189 0.0 0.0 0.00 0.00 0.00 92 1015.9
20260506100714 61 189 0.0 0.0 0.00 0.00 0.00 92 1016.0
20260506100215 61 189 0.0 0.0 0.00 0.00 0.00 92 1016.0
20260506095711 61 189 0.0 0.0 0.00 0.00 0.00 92 1016.1
20260506095215 61 189 0.0 0.0 0.00 0.00 0.00 92 1015.9
20260506094720 61 189 0.0 0.0 0.00 0.00 0.00 92 1015.9
20260506094224 61 189 0.0 0.0 0.00 0.00 0.00 92 1015.9
20260506093726 61 189 0.0 0.0 0.00 0.00 0.00 92 1015.9
20260506093231 62 191 0.0 0.0 0.00 0.00 0.00 92 1016.0
20260506092712 61 190 0.0 0.0 0.00 0.00 0.00 92 1016.0
20260506092216 61 191 0.0 0.0 0.00 0.00 0.00 92 1015.8
20260506091720 61 190 0.0 0.0 0.00 0.00 0.00 92 1015.7
20260506091224 61 192 0.0 0.0 0.00 0.00 0.00 92 1015.8
20260506090709 61 194 0.0 0.0 0.00 0.00 0.00 92 1016.0
20260506090232 61 194 0.0 0.0 0.00 0.00 0.00 92 1015.9
20260506085715 61 194 0.0 0.0 0.00 0.00 0.00 92 1015.8
20260506085219 61 194 0.0 0.0 0.00 0.00 0.00 92 1015.6
20260506084741 61 194 0.0 0.0 0.00 0.00 0.00 92 1015.8
20260506084224 61 194 0.0 0.0 0.00 0.00 0.00 92 1015.8
20260506083709 61 194 0.0 0.0 0.00 0.00 0.00 92 1015.7
20260506083215 61 194 0.0 0.0 0.00 0.00 0.00 92 1015.8
20260506082719 61 195 0.0 0.0 0.00 0.00 0.00 92 1015.8
20260506082224 61 195 0.0 0.0 0.00 0.00 0.00 92 1015.8
20260506081709 61 194 0.0 0.0 0.00 0.00 0.00 91 1015.7
20260506081212 61 194 0.0 0.0 0.00 0.00 0.00 91 1015.8
20260506080713 61 194 0.0 0.0 0.00 0.00 0.00 91 1015.9
20260506080237 61 194 0.0 0.0 0.00 0.00 0.00 91 1015.9
20260506073224 62 195 0.0 0.0 0.00 0.00 0.00 90 1015.8
20260506072727 62 194 0.0 0.0 0.00 0.00 0.00 90 1015.8
20260506072211 62 194 0.0 0.0 0.00 0.00 0.00 90 1015.8
20260506071715 62 194 0.0 0.0 0.00 0.00 0.00 89 1015.8
20260506071220 62 194 0.0 0.0 0.00 0.00 0.00 89 1015.8
20260506070744 62 194 0.0 0.0 0.00 0.00 0.00 89 1015.8
20260506070228 62 194 0.0 0.0 0.00 0.00 0.00 89 1015.9
20260506062226 62 197 0.0 0.0 0.00 0.00 0.00 89 1016.3
20260506061730 62 197 0.0 0.0 0.00 0.00 0.00 90 1016.3
20260506061214 62 197 0.0 0.0 0.00 0.00 0.00 89 1016.4
20260506060711 62 197 0.0 0.0 0.00 0.00 0.00 89 1016.4
20260506060217 62 197 0.0 0.0 0.00 0.00 0.00 89 1016.5
20260506051223 63 197 0.0 0.0 0.00 0.00 0.00 88 1016.7
20260506050727 63 197 0.0 0.0 0.00 0.00 0.00 87 1016.8
20260506050212 63 197 0.0 0.0 0.00 0.00 0.00 88 1016.8
20260506044710 63 197 0.0 0.0 0.00 0.00 0.00 87 1017.0
20260506044214 63 197 0.0 0.0 0.00 0.00 0.00 87 1017.0
20260506043718 63 197 0.0 0.0 0.00 0.00 0.00 87 1017.1
20260506043224 63 197 0.0 0.0 0.00 0.00 0.00 87 1017.1
20260506042726 63 197 0.0 0.0 0.00 0.00 0.00 87 1017.1
20260506042209 63 197 0.0 0.0 0.00 0.00 0.00 87 1017.1
20260506041712 63 197 0.0 0.0 0.00 0.00 0.00 87 1017.2
20260506041216 64 197 0.0 0.0 0.00 0.00 0.00 87 1017.1
20260506040716 64 197 0.0 0.0 0.00 0.00 0.00 87 1017.1
20260506040220 64 197 0.0 0.0 0.00 0.00 0.00 86 1017.0
20260506035728 64 197 0.0 0.0 0.00 0.00 0.00 86 1016.9
20260506035212 64 197 0.0 0.0 0.00 0.00 0.00 85 1016.9
20260506034737 64 197 0.0 0.0 0.00 0.00 0.00 85 1016.8
20260506034219 64 197 0.0 0.0 0.00 0.00 0.00 84 1016.7
20260506033725 65 197 0.0 0.0 0.00 0.00 0.00 85 1016.6
20260506033228 65 197 0.0 0.0 0.00 0.00 0.00 84 1016.6
20260506032732 65 197 0.0 0.0 0.00 0.00 0.00 84 1016.5
20260506032235 65 196 0.0 0.0 0.00 0.00 0.00 82 1016.5
20260506031718 65 197 0.0 0.0 0.00 0.00 0.00 81 1016.4
20260506031226 65 239 0.0 0.0 0.00 0.00 0.00 81 1016.4
20260506030710 66 239 0.0 0.0 0.00 0.00 0.00 80 1016.3
20260506030213 66 240 0.0 0.0 0.00 0.00 0.00 80 1016.2
20260506025717 66 240 0.0 0.0 0.00 0.00 0.00 80 1016.3
20260506025221 66 240 0.0 0.0 0.00 0.00 0.00 79 1016.3
20260506024726 67 240 0.0 0.0 0.00 0.00 0.00 79 1016.2
20260506024210 67 240 0.0 0.0 0.00 0.00 0.00 78 1016.2
20260506023714 67 240 0.0 0.0 0.00 0.00 0.00 77 1016.2
20260506023218 67 240 0.0 1.0 0.00 0.00 0.00 77 1016.1
20260506022721 68 240 0.0 1.0 0.00 0.00 0.00 77 1016.2
20260506022209 68 195 0.0 0.0 0.00 0.00 0.00 76 1016.2
20260506021713 68 195 0.0 0.0 0.00 0.00 0.00 75 1016.1
20260506021216 68 195 0.0 0.0 0.00 0.00 0.00 74 1016.1
20260506020719 68 195 0.0 0.0 0.00 0.00 0.00 74 1016.2
20260506020224 69 156 0.0 0.0 0.00 0.00 0.00 73 1016.2
20260506015728 69 151 0.0 0.0 0.00 0.00 0.00 73 1016.1
20260506015213 69 153 0.0 1.0 0.00 0.00 0.00 72 1016.1
20260506014717 69 124 0.0 1.0 0.00 0.00 0.00 72 1016.1
20260506014221 70 142 0.0 2.0 0.00 0.00 0.00 71 1016.1
20260506013725 70 152 0.0 2.0 0.00 0.00 0.00 71 1016.0
20260506013228 70 153 0.0 0.0 0.00 0.00 0.00 71 1016.0
20260506012709 70 114 0.0 1.0 0.00 0.00 0.00 71 1016.1
20260506012232 70 120 0.0 1.0 0.00 0.00 0.00 70 1016.0
20260506011735 70 103 0.0 1.0 0.00 0.00 0.00 70 1016.0
20260506011220 70 135 0.0 0.0 0.00 0.00 0.00 68 1016.0
20260506010724 71 132 0.0 0.0 0.00 0.00 0.00 68 1016.0
20260506010228 71 127 0.0 1.0 0.00 0.00 0.00 67 1016.0
20260506005712 71 124 0.0 3.0 0.00 0.00 0.00 66 1016.0
20260506005217 72 92 1.0 3.0 0.00 0.00 0.00 66 1015.9
20260506004720 72 199 0.0 4.0 0.00 0.00 0.00 65 1015.7
20260506004224 72 93 1.0 4.0 0.00 0.00 0.00 65 1015.6
20260506003725 72 115 0.0 3.0 0.00 0.00 0.00 65 1015.8
20260506003228 73 99 1.0 6.0 0.00 0.00 0.00 65 1015.6
20260506002709 73 114 2.0 6.0 0.00 0.00 0.00 64 1015.4
20260506002210 73 98 3.0 7.0 0.00 0.00 0.00 64 1015.4
20260506001718 73 106 3.0 7.0 0.00 0.00 0.00 64 1015.3
20260506001243 73 183 1.0 5.0 0.00 0.00 0.00 64 1015.3
20260506000726 74 116 2.0 7.0 0.00 0.00 0.00 63 1015.2
20260506000212 74 95 4.0 7.0 0.00 0.00 0.00 63 1015.2
20260505235714 74 101 3.0 5.0 0.00 0.00 0.00 63 1015.1
20260505235218 75 94 2.0 6.0 0.00 0.00 0.00 62 1015.3
20260505234723 75 95 2.0 7.0 0.00 0.00 0.00 60 1015.2
20260505234226 75 151 2.0 9.0 0.00 0.00 0.00 60 1015.2
20260505233710 76 132 3.0 10.0 0.00 0.00 0.00 60 1015.1
20260505233213 76 103 5.0 10.0 0.00 0.00 0.00 59 1015.1
20260505232735 76 131 6.0 11.0 0.00 0.00 0.00 60 1015.2
20260505232219 77 157 6.0 12.0 0.00 0.00 0.00 61 1015.2
20260505231743 77 56 6.0 13.0 0.00 0.00 0.00 62 1015.1
20260505231247 77 87 8.0 13.0 0.00 0.00 0.00 58 1015.2
20260505230710 77 72 9.0 13.0 0.00 0.00 0.00 60 1015.1
20260505230216 77 79 9.0 12.0 0.00 0.00 0.00 55 1015.2
20260505225720 77 89 7.0 13.0 0.00 0.00 0.00 56 1015.2
20260505225224 77 99 8.0 13.0 0.00 0.00 0.00 54 1015.1
20260505224728 77 123 7.0 15.0 0.00 0.00 0.00 54 1015.2
20260505224227 77 82 12.0 15.0 0.00 0.00 0.00 58 1015.1
20260505223711 77 85 12.0 15.0 0.00 0.00 0.00 57 1015.1
20260505223214 77 91 12.0 16.0 0.00 0.00 0.00 62 1014.9
20260505222737 78 87 12.0 16.0 0.00 0.00 0.00 60 1015.0
20260505222220 78 87 10.0 17.0 0.00 0.00 0.00 57 1014.9
20260505221724 78 82 10.0 17.0 0.00 0.00 0.00 56 1014.9
20260505221228 78 82 11.0 16.0 0.00 0.00 0.00 60 1014.9
20260505220722 78 85 9.0 14.0 0.00 0.00 0.00 58 1014.9
20260505215717 78 87 8.0 14.0 0.00 0.00 0.00 58 1015.0
20260505215221 78 85 11.0 16.0 0.00 0.00 0.00 63 1015.1
20260505214716 78 77 12.0 16.0 0.00 0.00 0.00 56 1015.1
20260505214220 78 97 11.0 16.0 0.00 0.00 0.00 59 1015.1
20260505213724 78 70 8.0 16.0 0.00 0.00 0.00 59 1015.0
20260505213227 78 73 13.0 18.0 0.00 0.00 0.00 63 1015.0
20260505212731 78 83 16.0 18.0 0.00 0.00 0.00 58 1015.1
20260505212211 78 81 14.0 18.0 0.00 0.00 0.00 62 1015.1
20260505211713 78 75 14.0 17.0 0.00 0.00 0.00 62 1015.0
20260505211216 78 75 12.0 17.0 0.00 0.00 0.00 62 1015.1
20260505210719 78 73 13.0 16.0 0.00 0.00 0.00 62 1015.1
20260505210222 78 75 12.0 17.0 0.00 0.00 0.00 60 1015.1
20260505205710 78 82 12.0 17.0 0.00 0.00 0.00 57 1015.1
20260505205213 78 79 14.0 16.0 0.00 0.00 0.00 57 1015.0
20260505204717 79 114 7.0 16.0 0.00 0.00 0.00 56 1015.0
20260505204235 79 87 12.0 15.0 0.00 0.00 0.00 61 1015.0
20260505203716 79 68 8.0 12.0 0.00 0.00 0.00 58 1015.0
20260505203219 79 59 9.0 13.0 0.00 0.00 0.00 57 1015.0
20260505202722 79 73 10.0 13.0 0.00 0.00 0.00 58 1015.0
20260505202226 79 75 8.0 15.0 0.00 0.00 0.00 62 1015.0
20260505201747 79 94 11.0 15.0 0.00 0.00 0.00 57 1015.1
20260505201210 79 75 9.0 15.0 0.00 0.00 0.00 58 1015.2
20260505200727 79 68 10.0 15.0 0.00 0.00 0.00 60 1015.2
20260505200211 79 82 8.0 14.0 0.00 0.00 0.00 55 1015.1
20260505195713 79 80 6.0 15.0 0.00 0.00 0.00 57 1015.2
20260505195211 79 81 11.0 15.0 0.00 0.00 0.00 57 1015.3
20260505194715 79 70 9.0 13.0 0.00 0.00 0.00 56 1015.4
20260505194217 79 59 6.0 8.0 0.00 0.00 0.00 58 1015.4
20260505193724 79 67 4.0 9.0 0.00 0.00 0.00 55 1015.6
20260505193226 79 90 6.0 12.0 0.00 0.00 0.00 55 1015.7
20260505192728 79 79 9.0 11.0 0.00 0.00 0.00 57 1015.7
20260505192230 79 96 6.0 14.0 0.00 0.00 0.00 55 1015.8
20260505191713 79 103 10.0 14.0 0.00 0.00 0.00 56 1015.8
20260505191238 79 82 10.0 14.0 0.00 0.00 0.00 64 1015.8
20260505190720 79 80 8.0 12.0 0.00 0.00 0.00 56 1015.8
20260505190222 79 81 8.0 11.0 0.00 0.00 0.00 64 1015.8
20260505185726 78 78 9.0 11.0 0.00 0.00 0.00 58 1016.0
20260505185210 78 37 7.0 9.0 0.00 0.00 0.00 57 1016.0
20260505184711 78 56 5.0 11.0 0.00 0.00 0.00 58 1016.1
20260505184214 78 70 7.0 11.0 0.00 0.00 0.00 58 1016.2
20260505183718 78 53 6.0 8.0 0.00 0.00 0.00 62 1016.2
20260505183225 78 74 6.0 10.0 0.00 0.00 0.00 58 1016.2
20260505182724 78 53 8.0 11.0 0.00 0.00 0.00 60 1016.2
20260505182228 78 91 9.0 12.0 0.00 0.00 0.00 63 1016.1
20260505181710 78 77 8.0 13.0 0.00 0.00 0.00 62 1016.1
20260505181211 78 76 10.0 13.0 0.00 0.00 0.00 61 1016.2
20260505180717 78 77 9.0 12.0 0.00 0.00 0.00 58 1016.3
20260505180222 78 86 6.0 9.0 0.00 0.00 0.00 59 1016.3
20260505175726 78 69 7.0 8.0 0.00 0.00 0.00 58 1016.4
20260505175210 78 95 5.0 10.0 0.00 0.00 0.00 59 1016.5
20260505174713 78 91 7.0 10.0 0.00 0.00 0.00 58 1016.6
20260505174217 78 89 7.0 9.0 0.00 0.00 0.00 59 1016.6
20260505173721 78 81 2.0 6.0 0.00 0.00 0.00 57 1016.7
20260505173225 78 96 4.0 9.0 0.00 0.00 0.00 57 1016.6
20260505172712 78 81 6.0 10.0 0.00 0.00 0.00 57 1016.7
20260505172217 78 87 7.0 10.0 0.00 0.00 0.00 60 1016.7
20260505171719 78 85 5.0 7.0 0.00 0.00 0.00 62 1016.7
20260505171223 78 54 2.0 4.0 0.00 0.00 0.00 59 1016.7
20260505170727 78 51 3.0 5.0 0.00 0.00 0.00 56 1016.9
20260505170211 78 62 3.0 6.0 0.00 0.00 0.00 59 1016.9
20260505165713 78 62 4.0 7.0 0.00 0.00 0.00 59 1016.9
20260505165237 78 55 5.0 10.0 0.00 0.00 0.00 58 1016.9
20260505164740 78 42 4.0 9.0 0.00 0.00 0.00 62 1016.9
20260505164224 78 56 6.0 8.0 0.00 0.00 0.00 60 1016.9
20260505163726 78 81 6.0 8.0 0.00 0.00 0.00 59 1017.0
20260505163210 77 63 5.0 6.0 0.00 0.00 0.00 61 1017.1
20260505162733 77 44 4.0 6.0 0.00 0.00 0.00 60 1017.1
20260505162220 77 72 4.0 6.0 0.00 0.00 0.00 62 1017.1
20260505161723 77 64 3.0 5.0 0.00 0.00 0.00 63 1017.0
20260505161225 77 75 4.0 6.0 0.00 0.00 0.00 61 1017.0
20260505160726 77 99 4.0 6.0 0.00 0.00 0.00 62 1016.9
20260505160215 77 68 3.0 9.0 0.00 0.00 0.00 64 1016.9
20260505153222 76 50 4.0 6.0 0.00 0.00 0.00 64 1017.1
20260505152725 76 37 2.0 4.0 0.00 0.00 0.00 64 1017.2
20260505152210 76 63 3.0 7.0 0.00 0.00 0.00 63 1017.1
20260505151734 76 51 2.0 7.0 0.00 0.00 0.00 65 1017.1
20260505151218 76 81 4.0 5.0 0.00 0.00 0.00 63 1017.1
20260505150741 75 54 2.0 5.0 0.00 0.00 0.00 63 1017.1
20260505150225 75 70 3.0 6.0 0.00 0.00 0.00 64 1017.1
20260505140211 74 75 4.0 10.0 0.00 0.00 0.00 71 1016.8